TimeEST,TemperatureF,Dew PointF,Humidity,Sea Level PressureIn,VisibilityMPH,Wind Direction,Wind SpeedMPH,Gust SpeedMPH,PrecipitationIn,Events,Conditions,WindDirDegrees,DateUTC
12:15 AM,44.6,44.6,100,30.03,1.5,Calm,Calm,-,N/A,,Unknown,0,2014-01-15 05:15:00
12:35 AM,44.6,44.6,100,30.03,10.0,Calm,Calm,-,N/A,,Clear,0,2014-01-15 05:35:00
12:55 AM,42.8,42.8,100,30.02,0.8,Calm,Calm,-,N/A,,Unknown,0,2014-01-15 05:55:00
1:15 AM,42.8,42.8,100,30.02,0.5,Calm,Calm,-,N/A,,Unknown,0,2014-01-15 06:15:00
1:35 AM,42.8,42.8,100,30.02,1.2,Calm,Calm,-,N/A,,Unknown,0,2014-01-15 06:35:00
1:55 AM,42.8,42.8,100,30.02,0.5,Calm,Calm,-,N/A,,Unknown,0,2014-01-15 06:55:00
2:15 AM,42.8,42.8,100,30.01,0.5,Calm,Calm,-,N/A,,Mostly Cloudy,0,2014-01-15 07:15:00
2:35 AM,41.0,41.0,100,30.01,1.0,Calm,Calm,-,N/A,,Unknown,0,2014-01-15 07:35:00
2:55 AM,41.0,41.0,100,30.01,1.2,Calm,Calm,-,N/A,,Unknown,0,2014-01-15 07:55:00
3:15 AM,41.0,41.0,100,30.01,0.8,Calm,Calm,-,N/A,,Unknown,0,2014-01-15 08:15:00
3:35 AM,41.0,41.0,100,30.01,1.0,Calm,Calm,-,N/A,,Unknown,0,2014-01-15 08:35:00
3:55 AM,41.0,41.0,100,30.01,1.2,Calm,Calm,-,N/A,,Unknown,0,2014-01-15 08:55:00
4:15 AM,39.2,39.2,100,30.01,0.5,Calm,Calm,-,N/A,,Unknown,0,2014-01-15 09:15:00
4:35 AM,39.2,39.2,100,30.00,1.8,Calm,Calm,-,N/A,,Unknown,0,2014-01-15 09:35:00
4:55 AM,39.2,39.2,100,30.00,2.0,Calm,Calm,-,N/A,,Clear,0,2014-01-15 09:55:00
5:15 AM,39.2,39.2,100,29.99,0.8,WNW,3.5,-,N/A,,Unknown,300,2014-01-15 10:15:00
5:35 AM,41.0,41.0,100,30.00,10.0,Calm,Calm,-,N/A,,Clear,0,2014-01-15 10:35:00
5:55 AM,39.2,39.2,100,30.00,3.0,Calm,Calm,-,N/A,,Clear,0,2014-01-15 10:55:00
6:15 AM,41.0,41.0,100,30.00,7.0,Calm,Calm,-,N/A,,Clear,0,2014-01-15 11:15:00
6:35 AM,37.4,37.4,100,30.00,0.8,Calm,Calm,-,N/A,,Unknown,0,2014-01-15 11:35:00
6:55 AM,37.4,37.4,100,30.00,1.0,Calm,Calm,-,N/A,,Unknown,0,2014-01-15 11:55:00
7:15 AM,37.4,37.4,100,30.00,0.5,Calm,Calm,-,N/A,,Unknown,0,2014-01-15 12:15:00
7:35 AM,37.4,37.4,100,30.01,0.5,Calm,Calm,-,N/A,,Unknown,0,2014-01-15 12:35:00
7:55 AM,37.4,37.4,100,30.01,0.8,Calm,Calm,-,N/A,,Unknown,0,2014-01-15 12:55:00
8:15 AM,41.0,41.0,100,30.02,1.0,Calm,Calm,-,N/A,,Unknown,0,2014-01-15 13:15:00
8:35 AM,42.8,42.8,100,30.03,10.0,West,3.5,-,N/A,,Clear,280,2014-01-15 13:35:00
8:55 AM,44.6,44.6,100,30.04,10.0,Calm,Calm,-,N/A,,Clear,0,2014-01-15 13:55:00
9:15 AM,48.2,44.6,87,30.05,10.0,Calm,Calm,-,N/A,,Clear,0,2014-01-15 14:15:00
9:35 AM,51.8,42.8,71,30.05,10.0,WNW,3.5,-,N/A,,Clear,300,2014-01-15 14:35:00
9:55 AM,53.6,44.6,72,30.05,10.0,NW,3.5,-,N/A,,Clear,320,2014-01-15 14:55:00
10:15 AM,53.6,44.6,72,30.06,10.0,NW,3.5,-,N/A,,Clear,320,2014-01-15 15:15:00
10:35 AM,55.4,44.6,67,30.06,10.0,West,5.8,-,N/A,,Clear,280,2014-01-15 15:35:00
10:55 AM,57.2,44.6,63,30.05,10.0,West,4.6,-,N/A,,Clear,280,2014-01-15 15:55:00
11:15 AM,59.0,42.8,55,30.04,10.0,West,5.8,-,N/A,,Clear,270,2014-01-15 16:15:00
11:35 AM,59.0,41.0,51,30.03,10.0,WSW,3.5,-,N/A,,Clear,240,2014-01-15 16:35:00
11:55 AM,60.8,41.0,48,30.00,10.0,West,5.8,-,N/A,,Clear,270,2014-01-15 16:55:00
12:15 PM,60.8,39.2,45,29.98,10.0,WNW,6.9,-,N/A,,Clear,290,2014-01-15 17:15:00
12:35 PM,60.8,39.2,45,29.96,10.0,WSW,6.9,-,N/A,,Clear,240,2014-01-15 17:35:00
12:55 PM,60.8,41.0,48,29.95,10.0,WSW,6.9,-,N/A,,Clear,240,2014-01-15 17:55:00
1:15 PM,60.8,41.0,48,29.95,10.0,WSW,5.8,-,N/A,,Clear,240,2014-01-15 18:15:00
1:35 PM,60.8,37.4,42,29.93,10.0,SSW,6.9,-,N/A,,Clear,210,2014-01-15 18:35:00
1:55 PM,60.8,37.4,42,29.93,10.0,SW,6.9,-,N/A,,Clear,230,2014-01-15 18:55:00
2:15 PM,60.8,35.6,39,29.93,10.0,WSW,10.4,-,N/A,,Clear,240,2014-01-15 19:15:00
2:35 PM,60.8,35.6,39,29.91,10.0,SW,8.1,-,N/A,,Clear,230,2014-01-15 19:35:00
2:55 PM,62.6,37.4,39,29.91,10.0,SW,6.9,-,N/A,,Clear,230,2014-01-15 19:55:00
3:15 PM,62.6,35.6,37,29.91,10.0,SW,5.8,-,N/A,,Clear,230,2014-01-15 20:15:00
3:35 PM,62.6,37.4,39,29.91,10.0,WSW,8.1,-,N/A,,Clear,250,2014-01-15 20:35:00
3:55 PM,62.6,37.4,39,29.91,10.0,SW,9.2,-,N/A,,Clear,230,2014-01-15 20:55:00
4:15 PM,60.8,37.4,42,29.91,10.0,WSW,6.9,-,N/A,,Clear,240,2014-01-15 21:15:00
4:35 PM,62.6,37.4,39,29.91,10.0,WSW,6.9,-,N/A,,Clear,240,2014-01-15 21:35:00
4:55 PM,60.8,39.2,45,29.91,10.0,SW,5.8,-,N/A,,Clear,230,2014-01-15 21:55:00
5:15 PM,60.8,37.4,42,29.91,10.0,West,4.6,-,N/A,,Clear,260,2014-01-15 22:15:00
5:35 PM,59.0,39.2,48,29.91,10.0,WSW,4.6,-,N/A,,Clear,250,2014-01-15 22:35:00
5:55 PM,55.4,41.0,58,29.91,10.0,West,4.6,-,N/A,,Clear,270,2014-01-15 22:55:00
6:15 PM,55.4,39.2,54,29.91,10.0,West,3.5,-,N/A,,Clear,270,2014-01-15 23:15:00
6:35 PM,51.8,42.8,71,29.92,10.0,Calm,Calm,-,N/A,,Clear,0,2014-01-15 23:35:00
6:55 PM,51.8,42.8,71,29.93,10.0,Calm,Calm,-,N/A,,Clear,0,2014-01-15 23:55:00
7:15 PM,50.0,42.8,76,29.93,10.0,Calm,Calm,-,N/A,,Clear,0,2014-01-16 00:15:00
7:35 PM,50.0,42.8,76,29.93,10.0,WSW,3.5,-,N/A,,Clear,250,2014-01-16 00:35:00
7:55 PM,50.0,42.8,76,29.93,10.0,WSW,3.5,-,N/A,,Clear,240,2014-01-16 00:55:00
8:15 PM,50.0,41.0,71,29.95,10.0,West,10.4,-,N/A,,Scattered Clouds,280,2014-01-16 01:15:00
8:35 PM,53.6,39.2,58,29.95,10.0,WNW,4.6,-,N/A,,Scattered Clouds,290,2014-01-16 01:35:00
8:55 PM,51.8,39.2,62,29.95,10.0,Calm,Calm,-,N/A,,Clear,0,2014-01-16 01:55:00
9:15 PM,51.8,39.2,62,29.94,10.0,WNW,3.5,-,N/A,,Clear,300,2014-01-16 02:15:00
9:35 PM,51.8,41.0,67,29.94,10.0,NW,4.6,-,N/A,,Clear,310,2014-01-16 02:35:00
9:55 PM,50.0,39.2,66,29.96,10.0,WNW,6.9,-,N/A,,Clear,290,2014-01-16 02:55:00
10:15 PM,50.0,39.2,66,29.98,10.0,WNW,8.1,-,N/A,,Scattered Clouds,290,2014-01-16 03:15:00
10:35 PM,50.0,37.4,62,29.99,10.0,WNW,5.8,-,N/A,,Mostly Cloudy,300,2014-01-16 03:35:00
10:55 PM,50.0,37.4,62,29.99,10.0,WNW,8.1,-,N/A,,Overcast,300,2014-01-16 03:55:00
11:15 PM,50.0,37.4,62,29.98,10.0,NW,10.4,-,N/A,,Overcast,310,2014-01-16 04:15:00
11:35 PM,50.0,35.6,58,29.99,10.0,NW,9.2,16.1,N/A,,Mostly Cloudy,310,2014-01-16 04:35:00
11:55 PM,48.2,35.6,62,29.99,10.0,WNW,8.1,16.1,N/A,,Mostly Cloudy,300,2014-01-16 04:55:00